Voltar ao catálogo

STARLINK-31541

AtivoComunicaçõesVLEO
NORAD 59633·PAYLOAD·🇺🇸 United States

Lançado May 3, 2024 de Cape Canaveral Space Force Station

Loading…

Próximas Passagens (próximas 24 horas)

TLE

AtualizadoSource: CelesTrak SupGP

Época: Sep 15, 2026, 02:44 UTC

1 59633C 24082C   26258.11437500  .00051367  00000+0  18607-2 0  2589
2 59633  42.9994 142.9230 0001293 270.4610 107.0369 15.27550795    14

Acompanhe STARLINK-31541 em tempo real com AllMySat

Download on the App Store